Time,TemperatureF,DewpointF,PressureIn,WindDirection,WindDirectionDegrees,WindSpeedMPH,WindSpeedGustMPH,Humidity,HourlyPrecipIn,Conditions,Clouds,dailyrainin,SoftwareType,DateUTC
2013-05-19 08:22:00,57.0,56.0,30.23,ENE,66,0.0,3.0,96,-99.99,,,-99.99,,2013-05-19 12:22:00,
2013-05-19 08:32:00,57.0,56.0,30.23,ENE,66,0.0,3.0,96,-99.99,,,-99.99,,2013-05-19 12:32:00,
2013-05-19 08:42:00,57.0,56.0,30.23,ENE,66,0.0,3.0,96,-99.99,,,-99.99,,2013-05-19 12:42:00,
2013-05-19 08:52:00,57.0,56.0,30.23,ENE,66,0.0,3.0,96,-99.99,,,-99.99,,2013-05-19 12:52:00,
2013-05-19 09:01:00,57.0,56.0,30.23,ENE,66,0.0,3.0,96,-99.99,,,-99.99,,2013-05-19 13:01:00,
2013-05-19 09:21:00,57.0,56.0,30.24,ENE,71,0.0,4.0,96,0.02,,,-99.99,,2013-05-19 13:21:00,
2013-05-19 09:32:00,57.0,56.0,30.24,ENE,71,0.0,4.0,96,0.02,,,-99.99,,2013-05-19 13:32:00,
2013-05-19 09:42:00,57.0,56.0,30.24,ENE,71,0.0,4.0,96,0.02,,,-99.99,,2013-05-19 13:42:00,
2013-05-19 09:52:00,57.0,56.0,30.24,ENE,71,0.0,4.0,96,0.02,,,-99.99,,2013-05-19 13:52:00,
2013-05-19 10:01:00,58.0,57.0,30.23,ENE,72,0.0,5.0,96,0.01,,,-99.99,,2013-05-19 14:01:00,
2013-05-19 10:21:00,58.0,57.0,30.23,ENE,72,0.0,5.0,96,0.01,,,-99.99,,2013-05-19 14:21:00,
2013-05-19 10:32:00,58.0,57.0,30.23,ENE,72,0.0,5.0,96,0.01,,,-99.99,,2013-05-19 14:32:00,
2013-05-19 10:42:00,58.0,57.0,30.23,ENE,72,0.0,5.0,96,0.01,,,-99.99,,2013-05-19 14:42:00,
2013-05-19 10:52:00,58.0,57.0,30.23,ENE,72,0.0,5.0,96,0.01,,,-99.99,,2013-05-19 14:52:00,
2013-05-19 11:01:00,59.0,58.0,30.23,ENE,72,0.0,3.0,96,0.00,,,-99.99,,2013-05-19 15:01:00,
2013-05-19 11:22:00,59.0,58.0,30.23,ENE,72,0.0,3.0,96,0.00,,,-99.99,,2013-05-19 15:22:00,
2013-05-19 11:33:00,59.0,58.0,30.23,ENE,72,0.0,3.0,96,0.00,,,-99.99,,2013-05-19 15:33:00,
2013-05-19 11:43:00,59.0,58.0,30.23,ENE,72,0.0,3.0,96,0.00,,,-99.99,,2013-05-19 15:43:00,
2013-05-19 11:53:00,59.0,58.0,30.23,ENE,72,0.0,3.0,96,0.00,,,-99.99,,2013-05-19 15:53:00,
2013-05-19 12:01:00,59.0,58.0,30.22,ENE,63,0.0,4.0,96,0.00,,,-99.99,,2013-05-19 16:01:00,
2013-05-19 12:23:00,59.0,58.0,30.22,ENE,63,0.0,4.0,96,0.00,,,-99.99,,2013-05-19 16:23:00,
2013-05-19 12:33:00,59.0,58.0,30.22,ENE,63,0.0,4.0,96,0.00,,,-99.99,,2013-05-19 16:33:00,
2013-05-19 12:42:00,59.0,58.0,30.22,ENE,63,0.0,4.0,96,0.00,,,-99.99,,2013-05-19 16:42:00,
2013-05-19 12:52:00,59.0,58.0,30.22,ENE,63,0.0,4.0,96,0.00,,,-99.99,,2013-05-19 16:52:00,
2013-05-19 13:01:00,60.0,59.0,30.20,NE,56,0.0,3.0,96,0.00,,,-99.99,,2013-05-19 17:01:00,
2013-05-19 13:22:00,60.0,59.0,30.20,NE,56,0.0,3.0,96,0.00,,,-99.99,,2013-05-19 17:22:00,
2013-05-19 13:32:00,60.0,59.0,30.20,NE,56,0.0,3.0,96,0.00,,,-99.99,,2013-05-19 17:32:00,
2013-05-19 13:43:00,60.0,59.0,30.20,NE,56,0.0,3.0,96,0.00,,,-99.99,,2013-05-19 17:43:00,
2013-05-19 13:52:00,60.0,59.0,30.20,NE,56,0.0,3.0,96,0.00,,,-99.99,,2013-05-19 17:52:00,
2013-05-19 14:01:00,61.0,60.0,30.19,NE,51,0.0,4.0,96,0.00,,,-99.99,,2013-05-19 18:01:00,
2013-05-19 14:22:00,61.0,60.0,30.19,NE,51,0.0,4.0,96,0.00,,,-99.99,,2013-05-19 18:22:00,
2013-05-19 14:32:00,61.0,60.0,30.19,NE,51,0.0,4.0,96,0.00,,,-99.99,,2013-05-19 18:32:00,
2013-05-19 14:43:00,61.0,60.0,30.19,NE,51,0.0,4.0,96,0.00,,,-99.99,,2013-05-19 18:43:00,
2013-05-19 14:53:00,61.0,60.0,30.19,NE,51,0.0,4.0,96,0.00,,,-99.99,,2013-05-19 18:53:00,
2013-05-19 15:01:00,61.0,60.0,30.16,NE,43,1.0,5.0,97,0.00,,,-99.99,,2013-05-19 19:01:00,
2013-05-19 15:22:00,61.0,60.0,30.16,NE,43,1.0,5.0,97,0.00,,,-99.99,,2013-05-19 19:22:00,
2013-05-19 15:32:00,61.0,60.0,30.16,NE,43,1.0,5.0,97,0.00,,,-99.99,,2013-05-19 19:32:00,
2013-05-19 15:42:00,61.0,60.0,30.16,NE,43,1.0,5.0,97,0.00,,,-99.99,,2013-05-19 19:42:00,
2013-05-19 15:52:00,61.0,60.0,30.16,NE,43,1.0,5.0,97,0.00,,,-99.99,,2013-05-19 19:52:00,
2013-05-19 16:01:00,62.0,61.0,30.15,NNE,32,0.0,6.0,96,0.00,,,-99.99,,2013-05-19 20:01:00,
2013-05-19 16:22:00,62.0,61.0,30.15,NNE,32,0.0,6.0,96,0.00,,,-99.99,,2013-05-19 20:22:00,
2013-05-19 16:32:00,62.0,61.0,30.15,NNE,32,0.0,6.0,96,0.00,,,-99.99,,2013-05-19 20:32:00,
2013-05-19 16:42:00,62.0,61.0,30.15,NNE,32,0.0,6.0,96,0.00,,,-99.99,,2013-05-19 20:42:00,
2013-05-19 16:52:00,62.0,61.0,30.15,NNE,32,0.0,6.0,96,0.00,,,-99.99,,2013-05-19 20:52:00,
2013-05-19 17:01:00,62.0,61.0,30.14,ENE,67,0.0,2.0,96,0.00,,,-99.99,,2013-05-19 21:01:00,
2013-05-19 17:22:00,62.0,61.0,30.14,ENE,67,0.0,2.0,96,0.00,,,-99.99,,2013-05-19 21:22:00,
2013-05-19 17:32:00,62.0,61.0,30.14,ENE,67,0.0,2.0,96,0.00,,,-99.99,,2013-05-19 21:32:00,
2013-05-19 17:43:00,62.0,61.0,30.14,ENE,67,0.0,2.0,96,0.00,,,-99.99,,2013-05-19 21:43:00,
2013-05-19 17:53:00,62.0,61.0,30.14,ENE,67,0.0,2.0,96,0.00,,,-99.99,,2013-05-19 21:53:00,
2013-05-19 18:02:00,61.0,60.0,30.14,ENE,61,0.0,0.0,97,0.00,,,0.00,,2013-05-19 22:02:00,
2013-05-19 18:23:00,61.0,60.0,30.14,ENE,61,0.0,0.0,97,0.00,,,0.00,,2013-05-19 22:23:00,
2013-05-19 18:33:00,61.0,60.0,30.14,ENE,61,0.0,0.0,97,0.00,,,0.00,,2013-05-19 22:33:00,
2013-05-19 18:43:00,61.0,60.0,30.14,ENE,61,0.0,0.0,97,0.00,,,0.00,,2013-05-19 22:43:00,
2013-05-19 18:53:00,61.0,60.0,30.14,ENE,61,0.0,0.0,97,0.00,,,0.00,,2013-05-19 22:53:00,
2013-05-19 19:02:00,61.0,60.0,30.14,ENE,67,0.0,0.0,97,0.01,,,0.01,,2013-05-19 23:02:00,
2013-05-19 19:22:00,61.0,60.0,30.14,ENE,67,0.0,0.0,97,0.01,,,0.01,,2013-05-19 23:22:00,
2013-05-19 19:32:00,61.0,60.0,30.14,ENE,67,0.0,0.0,97,0.01,,,0.01,,2013-05-19 23:32:00,
2013-05-19 19:42:00,61.0,60.0,30.14,ENE,67,0.0,0.0,97,0.01,,,0.01,,2013-05-19 23:42:00,
2013-05-19 19:52:00,61.0,60.0,30.14,ENE,67,0.0,0.0,97,0.01,,,0.01,,2013-05-19 23:52:00,
2013-05-19 20:22:00,60.0,59.0,30.14,NE,53,0.0,4.0,97,0.01,,,0.02,,2013-05-20 00:22:00,
2013-05-19 20:32:00,60.0,59.0,30.14,NE,53,0.0,4.0,97,0.01,,,0.02,,2013-05-20 00:32:00,
2013-05-19 20:42:00,60.0,59.0,30.14,NE,53,0.0,4.0,97,0.01,,,0.02,,2013-05-20 00:42:00,
2013-05-19 20:52:00,60.0,59.0,30.14,NE,53,0.0,4.0,97,0.01,,,0.02,,2013-05-20 00:52:00,
2013-05-19 21:01:00,60.0,59.0,30.14,NE,53,0.0,4.0,97,0.01,,,0.02,,2013-05-20 01:01:00,
2013-05-19 21:22:00,60.0,59.0,30.14,East,92,1.0,3.0,97,0.00,,,0.02,,2013-05-20 01:22:00,
2013-05-19 21:32:00,60.0,59.0,30.14,East,92,1.0,3.0,97,0.00,,,0.02,,2013-05-20 01:32:00,
2013-05-19 21:42:00,60.0,59.0,30.14,East,92,1.0,3.0,97,0.00,,,0.02,,2013-05-20 01:42:00,
2013-05-19 21:52:00,60.0,59.0,30.14,East,92,1.0,3.0,97,0.00,,,0.02,,2013-05-20 01:52:00,
2013-05-19 22:02:00,59.0,58.0,30.16,ENE,65,0.0,0.0,97,0.00,,,0.02,,2013-05-20 02:02:00,
2013-05-19 22:22:00,59.0,58.0,30.16,ENE,65,0.0,0.0,97,0.00,,,0.02,,2013-05-20 02:22:00,
2013-05-19 22:32:00,59.0,58.0,30.16,ENE,65,0.0,0.0,97,0.00,,,0.02,,2013-05-20 02:32:00,
2013-05-19 22:42:00,59.0,58.0,30.16,ENE,65,0.0,0.0,97,0.00,,,0.02,,2013-05-20 02:42:00,
2013-05-19 22:52:00,59.0,58.0,30.16,ENE,65,0.0,0.0,97,0.00,,,0.02,,2013-05-20 02:52:00,
2013-05-19 23:01:00,59.0,58.0,30.15,ENE,59,0.0,1.0,97,0.00,,,0.02,,2013-05-20 03:01:00,
2013-05-19 23:12:00,59.0,58.0,30.15,ENE,59,0.0,1.0,97,0.00,,,0.02,,2013-05-20 03:12:00,
2013-05-19 23:21:00,59.0,58.0,30.15,ENE,59,0.0,1.0,97,0.00,,,0.02,,2013-05-20 03:21:00,
2013-05-19 23:33:00,59.0,58.0,30.15,ENE,59,0.0,1.0,97,0.00,,,0.02,,2013-05-20 03:33:00,
2013-05-19 23:43:00,59.0,58.0,30.15,ENE,59,0.0,1.0,97,0.00,,,0.02,,2013-05-20 03:43:00,
2013-05-19 23:52:00,59.0,58.0,30.15,ENE,59,0.0,1.0,97,0.00,,,0.02,,2013-05-20 03:52:00,